DNO069 LGAV-LCLK

Flight info

Callsign DNO069
Flight time N/A
Altitude 37000
Route KEA UL995 RDS UM601 EVENO M601 BONEK
Aircraft A321/M-SDE3FGHIRWY/LB1

Departure

Time 2026-05-04 19:15
Airport Athens Eleftherios Venizelos International Airport (LGAV)

Arrival

Time N/A
Airport Larnaca International Airport (LCLK)
Time Latitude Longitude Altitude Speed Heading
2026-05-04 18:26 37.93834 23.95064 302 ft 0 kts 307°
2026-05-04 19:05 37.93832 23.95067 273 ft 3 kts 307°
2026-05-04 19:05 37.93818 23.95091 301 ft 1 kts 307°
2026-05-04 19:05 37.93804 23.95116 300 ft 4 kts 301°
2026-05-04 19:05 37.93796 23.95142 302 ft 4 kts 246°
2026-05-04 19:06 37.93811 23.95162 300 ft 4 kts 217°
2026-05-04 19:06 37.93817 23.95167 300 ft 0 kts 217°
2026-05-04 19:09 37.93816 23.95166 300 ft 1 kts 217°
2026-05-04 19:10 37.93807 23.95158 301 ft 3 kts 217°
2026-05-04 19:10 37.93768 23.95121 302 ft 10 kts 216°
2026-05-04 19:10 37.93703 23.95133 301 ft 12 kts 126°
2026-05-04 19:10 37.93653 23.95217 301 ft 10 kts 133°
2026-05-04 19:11 37.93580 23.95224 297 ft 11 kts 204°
2026-05-04 19:11 37.93517 23.95157 300 ft 12 kts 219°
2026-05-04 19:11 37.93446 23.95088 300 ft 13 kts 216°
2026-05-04 19:11 37.93369 23.95014 302 ft 15 kts 218°
2026-05-04 19:12 37.93285 23.94933 303 ft 16 kts 217°
2026-05-04 19:12 37.93098 23.94760 303 ft 18 kts 217°
2026-05-04 19:12 37.92997 23.94663 304 ft 19 kts 217°
2026-05-04 19:13 37.92892 23.94563 301 ft 19 kts 217°
2026-05-04 19:13 37.92783 23.94460 304 ft 20 kts 217°
2026-05-04 19:13 37.92670 23.94352 305 ft 21 kts 216°
2026-05-04 19:13 37.92579 23.94291 304 ft 12 kts 181°
2026-05-04 19:14 37.92523 23.94348 307 ft 10 kts 129°
2026-05-04 19:14 37.92490 23.94429 309 ft 12 kts 90°
2026-05-04 19:14 37.92603 23.94558 305 ft 46 kts 36°
2026-05-04 19:14 37.93072 23.95008 297 ft 121 kts 37°
2026-05-04 19:15 37.93910 23.95799 301 ft 175 kts 36°
2026-05-04 19:15 37.94900 23.96742 966 ft 178 kts 36°
2026-05-04 19:15 37.95879 23.97688 1799 ft 177 kts 35°
2026-05-04 19:15 37.96852 23.98625 2552 ft 173 kts 34°
2026-05-04 19:16 37.97807 23.99540 3191 ft 171 kts 36°
2026-05-04 19:16 37.98513 24.00755 3634 ft 187 kts 69°
2026-05-04 19:16 37.98426 24.02525 3891 ft 219 kts 113°
2026-05-04 19:16 37.97463 24.04161 4144 ft 245 kts 125°
2026-05-04 19:17 37.96379 24.05914 4528 ft 266 kts 124°
2026-05-04 19:17 37.95228 24.07809 5201 ft 273 kts 124°
2026-05-04 19:17 37.94061 24.09737 5949 ft 278 kts 123°
2026-05-04 19:17 37.92874 24.11685 6730 ft 281 kts 123°
2026-05-04 19:18 37.91671 24.13659 7446 ft 285 kts 123°
2026-05-04 19:18 37.90452 24.15664 8143 ft 290 kts 123°
2026-05-04 19:18 37.89208 24.17713 8816 ft 296 kts 124°
2026-05-04 19:18 37.87941 24.19795 9505 ft 301 kts 124°
2026-05-04 19:19 37.86648 24.21923 10174 ft 308 kts 124°
2026-05-04 19:19 37.85294 24.24148 10370 ft 330 kts 124°
2026-05-04 19:19 37.83841 24.26533 10519 ft 352 kts 125°
2026-05-04 19:19 37.82323 24.29016 10974 ft 360 kts 125°
2026-05-04 19:20 37.80779 24.31539 11602 ft 364 kts 125°
2026-05-04 19:20 37.79227 24.34078 12260 ft 366 kts 125°
2026-05-04 19:20 37.77679 24.36609 12905 ft 369 kts 125°
2026-05-04 19:20 37.76099 24.39191 13592 ft 371 kts 124°
2026-05-04 19:21 37.74511 24.41781 14167 ft 375 kts 124°
2026-05-04 19:21 37.72906 24.44400 14724 ft 378 kts 125°
2026-05-04 19:21 37.71284 24.47047 15278 ft 381 kts 125°
2026-05-04 19:21 37.69651 24.49710 15860 ft 384 kts 125°
2026-05-04 19:22 37.68007 24.52388 16412 ft 387 kts 125°
2026-05-04 19:22 37.66349 24.55083 16961 ft 390 kts 125°
2026-05-04 19:22 37.64675 24.57798 17508 ft 393 kts 126°
2026-05-04 19:22 37.62987 24.60532 18049 ft 396 kts 126°
2026-05-04 19:23 37.61289 24.63282 18565 ft 399 kts 126°
2026-05-04 19:23 37.59578 24.66051 19033 ft 402 kts 126°
2026-05-04 19:23 37.57876 24.68807 19487 ft 404 kts 126°
2026-05-04 19:23 37.56144 24.71611 19953 ft 406 kts 126°
2026-05-04 19:24 37.54401 24.74433 20413 ft 409 kts 126°
2026-05-04 19:24 37.52652 24.77259 20860 ft 411 kts 126°
2026-05-04 19:24 37.50882 24.80115 21311 ft 413 kts 126°
2026-05-04 19:24 37.49101 24.82980 21746 ft 416 kts 126°
2026-05-04 19:25 37.47310 24.85861 22180 ft 418 kts 126°
2026-05-04 19:25 37.45509 24.88759 22603 ft 421 kts 126°
2026-05-04 19:25 37.43725 24.91630 23029 ft 423 kts 126°
2026-05-04 19:25 37.41900 24.94564 23448 ft 426 kts 126°
2026-05-04 19:26 37.40070 24.97505 23850 ft 428 kts 125°
2026-05-04 19:26 37.38853 24.99459 24081 ft 430 kts 126°
2026-05-04 19:26 37.37111 25.02518 24441 ft 430 kts 118°
2026-05-04 19:26 37.35764 25.05874 24760 ft 429 kts 108°
2026-05-04 19:27 37.34793 25.09418 25092 ft 430 kts 105°
2026-05-04 19:27 37.33851 25.12998 25443 ft 432 kts 105°
2026-05-04 19:27 37.32894 25.16581 25795 ft 434 kts 105°
2026-05-04 19:27 37.31921 25.20183 26143 ft 436 kts 106°
2026-05-04 19:28 37.30942 25.23798 26492 ft 437 kts 106°
2026-05-04 19:28 37.29963 25.27428 26830 ft 439 kts 106°
2026-05-04 19:28 37.28993 25.31027 27168 ft 441 kts 106°
2026-05-04 19:28 37.28007 25.34688 27503 ft 443 kts 105°
2026-05-04 19:29 37.26990 25.38349 27824 ft 446 kts 107°
2026-05-04 19:29 37.25881 25.42001 28166 ft 448 kts 109°
2026-05-04 19:29 37.24705 25.45633 28489 ft 450 kts 110°
2026-05-04 19:29 37.23487 25.49273 28809 ft 452 kts 110°
2026-05-04 19:30 37.22259 25.52914 29131 ft 454 kts 110°
2026-05-04 19:30 37.21022 25.56567 29445 ft 456 kts 110°
2026-05-04 19:30 37.19782 25.60233 29747 ft 458 kts 110°
2026-05-04 19:30 37.18539 25.63921 30034 ft 459 kts 110°
2026-05-04 19:31 37.17301 25.67616 30314 ft 460 kts 109°
2026-05-04 19:31 37.16066 25.71324 30535 ft 462 kts 109°
2026-05-04 19:31 37.14830 25.75045 30741 ft 463 kts 109°
2026-05-04 19:31 37.13591 25.78768 31001 ft 463 kts 109°
2026-05-04 19:32 37.12342 25.82495 31284 ft 463 kts 110°
2026-05-04 19:32 37.11090 25.86219 31563 ft 463 kts 110°
2026-05-04 19:32 37.09858 25.89885 31827 ft 463 kts 110°
2026-05-04 19:32 37.08608 25.93604 32090 ft 463 kts 110°
2026-05-04 19:33 37.07355 25.97322 32383 ft 463 kts 109°
2026-05-04 19:33 37.06102 26.01040 32647 ft 463 kts 109°
2026-05-04 19:33 37.04847 26.04758 32908 ft 463 kts 110°
2026-05-04 19:33 37.03592 26.08470 33170 ft 463 kts 110°
2026-05-04 19:34 37.02334 26.12186 33440 ft 463 kts 110°
2026-05-04 19:34 37.01075 26.15912 33615 ft 466 kts 109°
2026-05-04 19:34 36.99807 26.19649 33795 ft 468 kts 110°
2026-05-04 19:34 36.98548 26.23344 34026 ft 468 kts 110°
2026-05-04 19:35 36.97268 26.27093 34257 ft 469 kts 110°
2026-05-04 19:35 36.95988 26.30860 34389 ft 471 kts 110°
2026-05-04 19:35 36.94708 26.34636 34555 ft 472 kts 110°
2026-05-04 19:35 36.93427 26.38422 34732 ft 473 kts 110°
2026-05-04 19:36 36.92140 26.42226 34919 ft 474 kts 110°
2026-05-04 19:36 36.90851 26.46028 35103 ft 475 kts 110°
2026-05-04 19:36 36.89570 26.49790 35286 ft 475 kts 110°
2026-05-04 19:36 36.88273 26.53592 35472 ft 476 kts 110°
2026-05-04 19:37 36.86970 26.57404 35655 ft 477 kts 110°
2026-05-04 19:37 36.85662 26.61215 35830 ft 478 kts 110°
2026-05-04 19:37 36.84349 26.65031 36004 ft 479 kts 110°
2026-05-04 19:37 36.83028 26.68858 36178 ft 480 kts 110°
2026-05-04 19:38 36.81704 26.72693 36348 ft 480 kts 110°
2026-05-04 19:38 36.80387 26.76523 36508 ft 481 kts 110°
2026-05-04 19:38 36.79070 26.80361 36665 ft 481 kts 110°
2026-05-04 19:38 36.77751 26.84200 36824 ft 482 kts 110°
2026-05-04 19:39 36.76443 26.87990 37009 ft 482 kts 111°
2026-05-04 19:39 36.73776 26.95693 37084 ft 484 kts 111°
2026-05-04 19:40 36.71094 27.03414 37086 ft 484 kts 111°
2026-05-04 19:40 36.68425 27.11066 37082 ft 484 kts 111°
2026-05-04 19:41 36.65731 27.18767 37080 ft 484 kts 111°
2026-05-04 19:41 36.63040 27.26448 37065 ft 483 kts 111°
2026-05-04 19:42 36.60364 27.34083 37067 ft 484 kts 111°
2026-05-04 19:42 36.57663 27.41766 37068 ft 484 kts 111°
2026-05-04 19:43 36.54952 27.49448 37077 ft 485 kts 111°
2026-05-04 19:43 36.52232 27.57125 37077 ft 485 kts 111°
2026-05-04 19:44 36.49533 27.64751 37068 ft 485 kts 111°
2026-05-04 19:44 36.46803 27.72417 37060 ft 485 kts 111°
2026-05-04 19:45 36.44073 27.80071 37055 ft 485 kts 111°
2026-05-04 19:45 36.41335 27.87736 37052 ft 485 kts 112°
2026-05-04 19:46 36.38590 27.95393 37051 ft 485 kts 112°
2026-05-04 19:46 36.35864 28.02985 37052 ft 485 kts 112°
2026-05-04 19:47 36.34055 28.08109 37066 ft 484 kts 108°